Change the Weather History Date:

Saturday, September 14, 2013

  Actual Average Record
Temperature  
Mean Temperature 66 °F 69 °F  
Max Temperature 77 °F 79 °F 99 °F (1939)
Min Temperature 54 °F 59 °F 42 °F (1961)
Degree Days  
Heating Degree Days 0 1  
Month to date heating degree days 0 5  
Since 1 July heating degree days 0 6  
Cooling Degree Days 1 5  
Month to date cooling degree days 161 101  
Year to date cooling degree days 1274 1266  
Growing Degree Days 14 (Base 50)    
Moisture  
Dew Point 48 °F    
Average Humidity 58    
Maximum Humidity 77    
Minimum Humidity 38    
Precipitation  
Precipitation 0.00 in 0.13 in 2.13 in (1984)
Month to date precipitation 0.79 2.57  
Year to date precipitation 27.30 30.53  
Sea Level Pressure  
Sea Level Pressure 30.03 in    
Wind  
Wind Speed 8 mph (SSE)    
Max Wind Speed 16 mph    
Max Gust Speed 22 mph    
Visibility 10 miles    
Events      
T = Trace of Precipitation, MM = Missing Value Source: NWS Daily Summary

Daily Weather History Graph

Daily Weather History Graph

Search for Another Location

Airport or City:

Trip Planner

Search our weather history database for the weather conditions in past years. The results will help you decide how hot, cold, wet, or windy it might be!

Date:

Astronomy

Sep. 14, 2013 Rise Set
Actual Time 6:59 AM CDT 7:28 PM CDT
Civil Twilight 6:32 AM CDT 7:55 PM CDT
Nautical Twilight 6:01 AM CDT 8:26 PM CDT
Astronomical Twilight 5:29 AM CDT 8:58 PM CDT
Moon 4:08 PM CDT (9/14) 1:34 AM CDT (9/14)
Length of Visible Light 13h 22m
Length of Day
12h 28m
Waxing Gibbous, 72% of the Moon is Illuminated
Sep 14
Waxing Gibbous
Sep 19
Full
Sep 26
Last Quarter
Oct 4
New
Oct 11
First Quarter

Hourly Weather History & Observations

Time (CDT) Temp. Dew Point Humidity Pressure Visibility Wind Dir Wind Speed Gust Speed Precip Events Conditions
12:53 AM 61.0 °F 45.0 °F 56% 30.06 in 10.0 mi ESE 5.8 mph - N/A   Clear
1:53 AM 59.0 °F 45.0 °F 60% 30.08 in 10.0 mi ESE 5.8 mph - N/A   Clear
2:53 AM 57.0 °F 45.0 °F 64% 30.07 in 10.0 mi ESE 6.9 mph - N/A   Clear
3:53 AM 57.0 °F 45.0 °F 64% 30.07 in 10.0 mi ESE 5.8 mph - N/A   Clear
4:53 AM 55.0 °F 45.0 °F 69% 30.07 in 10.0 mi SE 4.6 mph - N/A   Clear
5:53 AM 54.0 °F 46.0 °F 75% 30.08 in 10.0 mi SE 4.6 mph - N/A   Clear
6:53 AM 54.0 °F 46.0 °F 75% 30.09 in 10.0 mi SE 5.8 mph - N/A   Clear
7:53 AM 55.9 °F 46.0 °F 69% 30.10 in 10.0 mi SE 6.9 mph - N/A   Clear
8:53 AM 61.0 °F 46.0 °F 58% 30.11 in 10.0 mi SSE 9.2 mph - N/A   Clear
9:53 AM 64.9 °F 46.9 °F 52% 30.10 in 10.0 mi South 10.4 mph - N/A   Clear
10:53 AM 68.0 °F 48.9 °F 50% 30.09 in 10.0 mi SSE 11.5 mph - N/A   Clear
11:53 AM 71.1 °F 50.0 °F 47% 30.09 in 10.0 mi South 10.4 mph - N/A   Clear
12:53 PM 72.0 °F 48.9 °F 44% 30.06 in 10.0 mi SSE 10.4 mph - N/A   Clear
1:53 PM 75.0 °F 48.0 °F 38% 30.03 in 10.0 mi SSE 10.4 mph - N/A   Clear
2:53 PM 75.0 °F 48.9 °F 40% 30.01 in 10.0 mi SE 10.4 mph - N/A   Clear
3:53 PM 75.9 °F 48.0 °F 37% 29.99 in 10.0 mi SSE 8.1 mph 16.1 mph N/A   Clear
4:53 PM 75.9 °F 50.0 °F 40% 29.97 in 10.0 mi SSE 11.5 mph - N/A   Clear
5:53 PM 73.9 °F 50.0 °F 43% 29.97 in 10.0 mi South 9.2 mph - N/A   Clear
6:53 PM 72.0 °F 48.9 °F 44% 29.97 in 10.0 mi SSE 6.9 mph - N/A   Clear
7:53 PM 70.0 °F 50.0 °F 49% 29.96 in 10.0 mi SSE 6.9 mph - N/A   Clear
8:53 PM 69.1 °F 51.1 °F 53% 29.95 in 10.0 mi SE 6.9 mph - N/A   Clear
9:53 PM 66.9 °F 51.1 °F 57% 29.95 in 10.0 mi SSE 6.9 mph - N/A   Clear
10:53 PM 66.0 °F 51.1 °F 59% 29.95 in 10.0 mi South 8.1 mph - N/A   Clear
11:53 PM 64.9 °F 52.0 °F 63% 29.95 in 10.0 mi SSE 9.2 mph - N/A   Clear